• Join FlightAware (Why Join?)
  • Login
  • US Flag GB Flag 
07:06 EDT


 

Airport Tracker/Info


-or-


 

Live Flight TrackerFlight Track Log ✈ AWE1286 ✈ 02-May-2013 ✈ KPHL - TIST / STT

Flight Track Log - Related Links

Times and Time Zones

All times are in EDT time to prevent confusion due to time zone crossing. See the AWE1286 flight status page for this flight to view local times or setup timezone preferences in your user account.

Time Position Orientation Groundspeed Altitude Reporting Facility
EDT Latitude Longitude Course Direction KTS MPH feet Rate Location/Type
09:46 39.8667 -75.2167 104° East 129 148 900  Level Philadelphia TRACON
09:47 39.8500 -75.1500 108° East 212 244 2,900 2,340 Climbing Philadelphia TRACON
09:49 39.5124 -75.3142 189° South  Level FlightAware Approximate
09:49 39.7625 -75.1244 167° South 221 254 8,100  Level Washington Center
09:50 39.3893 -75.3382 185° South  Level FlightAware Approximate
09:50 39.7025 -75.1708 211° Southwest 244 281 9,800  Level Washington Center
09:51 39.2659 -75.3587 201° Southwest  Level FlightAware Approximate
09:51 39.6297 -75.2306 212° Southwest 282 325 12,100  Level Washington Center
09:52 39.1888 -75.2937 104° East  Level FlightAware Approximate
09:52 39.5444 -75.2981 211° Southwest 331 381 13,100  Level Washington Center
09:53 39.4342 -75.3444 198° South 398 458 14,800 1,740 Climbing Washington Center
09:54 39.3153 -75.3636 187° South 411 473 16,700 1,080 Climbing Washington Center
09:55 39.2069 -75.3236 164° South 418 481 17,000 420 Climbing Washington Center
09:56 39.1669 -75.1847 110° East 345 397 17,600 600 Climbing Washington Center
09:57 39.1247 -75.0458 111° Southeast 369 425 18,300 1,260 Climbing Washington Center
09:58 39.0739 -74.9072 115° Southeast 402 463 20,100 1,620 Climbing Washington Center
09:59 39.0228 -74.7633 115° Southeast 425 489 21,600 1,140 Climbing Washington Center
10:00 38.9697 -74.6225 116° Southeast 437 503 22,500 1,320 Climbing Washington Center
10:01 38.9119 -74.4553 114° Southeast 451 519 24,300 1,140 Climbing Washington Center
10:03 38.7767 -74.1531 120° Southeast 466 536 26,300 960 Climbing New York Center
10:04 38.7036 -74.0111 123° Southeast 477 549 27,500 1,320 Climbing New York Center
10:05 38.6322 -73.8672 122° Southeast 482 555 29,000 1,380 Climbing New York Center
10:06 38.5631 -73.7261 122° Southeast 476 548 30,300 1,440 Climbing New York Center
10:07 38.4911 -73.5931 125° Southeast 471 542 31,900 1,320 Climbing New York Center
10:08 38.4214 -73.4606 124° Southeast 464 534 33,000 1,800 Climbing New York Center
10:09 38.3553 -73.3361 124° Southeast 447 514 35,600 1,560 Climbing New York Center
10:10 38.2933 -73.2094 122° Southeast 433 498 36,200 420 Climbing New York Center
10:11 38.2314 -73.0753 120° Southeast 426 490 36,500 300 Climbing New York Center
10:12 38.1544 -72.9592 130° Southeast 431 496 36,900 240 Climbing New York Center
10:13 38.0775 -72.8331 128° Southeast 443 510 37,000  Climbing New York Center
10:14 37.9903 -72.6881 127° Southeast 455 524 37,000  Level New York Center
10:15 37.9111 -72.5572 127° Southeast 462 532 37,000  Level New York Center
10:16 37.8378 -72.4369 128° Southeast 471 542 37,000  Level New York Center
10:17 37.7522 -72.2906 126° Southeast 471 542 37,000  Level New York Center
10:18 37.6683 -72.1681 131° Southeast 471 542 37,000  Level New York Center
10:19 37.6011 -72.0278 121° Southeast 420 483 37,000 -60 Level New York Center
10:20 37.5233 -71.8956 127° Southeast 461 531 36,900  Descending New York Center
10:21 37.4283 -71.7711 134° Southeast 466 536 37,000  Climbing New York Center
10:22 37.3017 -71.7014 156° South 483 556 37,000  Level New York Center
10:23 37.4000 -71.7000 176° South 527 606 37,000  Level New York Oceanic (ODAPS)
10:23 37.1581 -71.6814 174° South 489 563 37,000  Level New York Center
10:31 36.0750 -71.5743 176° South 527 606 37,000  Level FlightAware Transoceanic
10:32 35.9278 -71.5606 176° South 527 606 37,000  Level FlightAware Transoceanic
10:33 35.7806 -71.5469 176° South 527 606 37,000  Level FlightAware Transoceanic
10:34 35.6333 -71.5333 168° South 527 606 37,000  Level FlightAware Transoceanic
10:35 35.4921 -71.4970 168° South 527 606 37,000  Level FlightAware Transoceanic
10:36 35.3508 -71.4608 168° South 527 606 37,000  Level FlightAware Transoceanic
10:37 35.2095 -71.4248 168° South 527 606 37,000  Level FlightAware Transoceanic
10:38 35.0682 -71.3888 168° South 527 606 37,000  Level FlightAware Transoceanic
10:39 34.9269 -71.3530 168° South 527 606 37,000  Level FlightAware Transoceanic
10:40 34.7856 -71.3173 168° South 527 606 37,000  Level FlightAware Transoceanic
10:41 34.6443 -71.2818 168° South 527 606 37,000  Level FlightAware Transoceanic
10:42 34.5029 -71.2463 168° South 527 606 37,000  Level FlightAware Transoceanic
10:43 34.3616 -71.2110 168° South 527 606 37,000  Level FlightAware Transoceanic
10:44 34.2202 -71.1758 168° South 527 606 37,000  Level FlightAware Transoceanic
10:45 34.0788 -71.1407 168° South 527 606 37,000  Level FlightAware Transoceanic
10:46 33.9375 -71.1057 168° South 527 606 37,000  Level FlightAware Transoceanic
10:47 33.7961 -71.0709 168° South 527 606 37,000  Level FlightAware Transoceanic
10:48 33.6547 -71.0361 168° South 527 606 37,000  Level FlightAware Transoceanic
10:49 33.5133 -71.0015 168° South 527 606 37,000  Level FlightAware Transoceanic
10:50 33.3718 -70.9670 168° South 527 606 37,000  Level FlightAware Transoceanic
10:51 33.2304 -70.9326 169° South 527 606 37,000  Level FlightAware Transoceanic
10:52 33.0890 -70.8983 169° South 527 606 37,000  Level FlightAware Transoceanic
10:53 32.9475 -70.8641 169° South 527 606 37,000  Level FlightAware Transoceanic
10:54 32.8061 -70.8300 169° South 527 606 37,000  Level FlightAware Transoceanic
10:55 32.6646 -70.7961 169° South 527 606 37,000  Level FlightAware Transoceanic
10:56 32.5232 -70.7622 169° South 527 606 37,000  Level FlightAware Transoceanic
10:57 32.3817 -70.7285 169° South 527 606 37,000  Level FlightAware Transoceanic
10:58 32.2402 -70.6948 169° South 527 606 37,000  Level FlightAware Transoceanic
10:59 32.0987 -70.6613 169° South 527 606 37,000  Level FlightAware Transoceanic
11:00 31.9572 -70.6279 169° South 527 606 37,000  Level FlightAware Transoceanic
11:01 31.8156 -70.5945 169° South 527 606 37,000  Level FlightAware Transoceanic
11:02 31.6741 -70.5613 169° South 527 606 37,000  Level FlightAware Transoceanic
11:03 31.5326 -70.5282 169° South 527 606 37,000  Level FlightAware Transoceanic
11:04 31.3910 -70.4951 169° South 527 606 37,000  Level FlightAware Transoceanic
11:05 31.2495 -70.4622 169° South 527 606 37,000  Level FlightAware Transoceanic
11:06 31.1079 -70.4294 169° South 527 606 37,000  Level FlightAware Transoceanic
11:07 30.9664 -70.3966 169° South 527 606 37,000  Level FlightAware Transoceanic
11:08 30.8248 -70.3640 169° South 527 606 37,000  Level FlightAware Transoceanic
11:09 30.6832 -70.3315 169° South 527 606 37,000  Level FlightAware Transoceanic
11:10 30.5416 -70.2990 169° South 527 606 37,000  Level FlightAware Transoceanic
11:11 30.4179 -70.2643 166° South  Level FlightAware Approximate
11:12 30.2941 -70.2297 166° South  Level FlightAware Approximate
11:13 30.3099 -70.2370 169° South  Level FlightAware Approximate
11:13 30.4000 -70.2667 169° South 496 571 37,000  Level New York Oceanic (ODAPS)
11:14 30.1839 -70.2083 169° South  Level FlightAware Approximate
11:15 30.0578 -70.1795 169° South  Level FlightAware Approximate
11:16 29.9317 -70.1509 169° South  Level FlightAware Approximate
11:17 29.8056 -70.1224 169° South  Level FlightAware Approximate
11:18 29.6796 -70.0939 169° South  Level FlightAware Approximate
11:19 29.4301 -70.0483 169° South 496 571 37,000  Level FlightAware Transoceanic
11:20 29.2915 -70.0174 169° South 496 571 37,000  Level FlightAware Transoceanic
11:21 29.1530 -69.9866 169° South 496 571 37,000  Level FlightAware Transoceanic
11:22 29.0144 -69.9559 169° South 496 571 37,000  Level FlightAware Transoceanic
11:23 28.8757 -69.9253 169° South 496 571 37,000  Level FlightAware Transoceanic
11:24 28.7371 -69.8948 169° South 496 571 37,000  Level FlightAware Transoceanic
11:25 28.5985 -69.8643 169° South 496 571 37,000  Level FlightAware Transoceanic
11:26 28.4599 -69.8340 169° South 496 571 37,000  Level FlightAware Transoceanic
11:27 28.3213 -69.8037 169° South 496 571 37,000  Level FlightAware Transoceanic
11:28 28.1826 -69.7735 169° South 496 571 37,000  Level FlightAware Transoceanic
11:29 28.0440 -69.7434 169° South 496 571 37,000  Level FlightAware Transoceanic
11:30 27.9053 -69.7133 169° South 496 571 37,000  Level FlightAware Transoceanic
11:31 27.7667 -69.6833 169° South 496 571 37,000  Level FlightAware Transoceanic
11:32 27.6350 -69.6549 169° South 496 571 37,000  Level FlightAware Transoceanic
11:33 27.5033 -69.6265 169° South 496 571 37,000  Level FlightAware Transoceanic
11:34 27.3716 -69.5983 169° South 496 571 37,000  Level FlightAware Transoceanic
11:35 27.2399 -69.5700 169° South 496 571 37,000  Level FlightAware Transoceanic
11:36 27.1082 -69.5419 169° South 496 571 37,000  Level FlightAware Transoceanic
11:37 26.9764 -69.5138 169° South 496 571 37,000  Level FlightAware Transoceanic
11:38 26.8447 -69.4857 169° South 496 571 37,000  Level FlightAware Transoceanic
11:39 26.7130 -69.4578 169° South 496 571 37,000  Level FlightAware Transoceanic
11:40 26.5812 -69.4299 169° South 496 571 37,000  Level FlightAware Transoceanic
11:41 26.4495 -69.4021 169° South 496 571 37,000  Level FlightAware Transoceanic
11:42 26.3178 -69.3743 169° South 496 571 37,000  Level FlightAware Transoceanic
11:42 26.7167 -69.4500 170° South 484 557 37,000  Level New York Oceanic (ODAPS)
11:43 26.1860 -69.3466 169° South 496 571 37,000  Level FlightAware Transoceanic
11:44 26.0543 -69.3189 169° South 496 571 37,000  Level FlightAware Transoceanic
11:45 25.9225 -69.2914 169° South 496 571 37,000  Level FlightAware Transoceanic
11:46 25.7907 -69.2638 169° South 496 571 37,000  Level FlightAware Transoceanic
11:47 25.6589 -69.2364 169° South 496 571 37,000  Level FlightAware Transoceanic
11:48 25.5283 -69.2066 170° South 484 557 37,000  Level FlightAware Transoceanic
11:49 25.3962 -69.1799 170° South 484 557 37,000  Level FlightAware Transoceanic
11:50 25.2642 -69.1532 170° South 484 557 37,000  Level FlightAware Transoceanic
11:51 25.1321 -69.1266 170° South 484 557 37,000  Level FlightAware Transoceanic
11:51 25.0794 -69.1497 167° South 463 533 37,000  Level Miami Center
11:52 25.0000 -69.1000 167° South 484 557 37,000  Level FlightAware Transoceanic
11:52 24.9511 -69.1258 170° South 463 533 37,000  Level Miami Center
11:53 24.8641 -69.0662 167° South 484 557 37,000  Level FlightAware Transoceanic
11:53 24.8200 -69.0906 166° South 476 548 37,000  Level Miami Center
11:54 24.7282 -69.0324 167° South 484 557 37,000  Level FlightAware Transoceanic
11:54 24.6867 -69.0581 168° South 489 563 37,000  Level Miami Center
11:55 24.5922 -68.9987 167° South 484 557 37,000  Level FlightAware Transoceanic
11:55 24.5514 -69.0231 167° South 494 568 37,000  Level Miami Center
11:56 24.4563 -68.9651 167° South 484 557 37,000  Level FlightAware Transoceanic
11:56 24.4206 -68.9906 167° South 494 568 37,000  Level Miami Center
11:57 24.3203 -68.9316 167° South 484 557 37,000  Level FlightAware Transoceanic
11:57 24.2828 -68.9514 165° South 494 568 37,000  Level Miami Center
11:58 24.1497 -68.9211 168° South 494 568 37,000  Level Miami Center
11:59 24.0144 -68.8867 167° South 499 574 37,000  Level Miami Center
12:00 23.8814 -68.8519 167° South 489 563 37,000  Level Miami Center
12:01 23.7483 -68.8197 168° South 495 570 37,000  Level Miami Center
12:02 23.6044 -68.7836 167° South 495 570 37,000  Level Miami Center
12:03 23.4714 -68.7514 167° South 490 564 37,000  Level Miami Center
12:04 23.3317 -68.7128 166° South 496 571 37,000  Level Miami Center
12:05 23.2008 -68.6806 167° South 501 577 37,000  Level Miami Center
12:06 23.0592 -68.6467 168° South 501 577 37,000  Level Miami Center
12:07 22.9217 -68.6106 166° South 508 585 37,000  Level Miami Center
12:08 22.7844 -68.5767 167° South 508 585 37,000  Level Miami Center
12:09 22.6469 -68.5406 166° South 513 590 37,000  Level Miami Center
12:10 22.5056 -68.5069 168° South 513 590 37,000  Level Miami Center
12:11 22.3642 -68.4733 168° South 513 590 37,000  Level Miami Center
12:12 22.2247 -68.4397 167° South 513 590 37,000  Level Miami Center
12:13 22.0831 -68.4042 167° South 513 590 37,000 180 Level Miami Center
12:14 21.9417 -68.3706 168° South 519 597 37,400 600 Climbing Miami Center
12:15 21.8022 -68.3350 167° South 519 597 38,200 780 Climbing Miami Center
12:16 21.6628 -68.2994 167° South 514 592 39,000 360 Climbing Miami Center
12:17 21.5278 -68.2681 168° South 504 580 39,000  Level Miami Center
12:18 21.3969 -68.2364 167° South 499 574 39,000  Level Miami Center
12:19 21.2744 -68.2042 166° South 485 558 39,000 -60 Level Miami Center
12:20 21.1322 -68.1578 163° South 490 564 38,900  Descending Miami Center
12:21 21.0303 -68.0469 135° Southeast 497 572 39,000  Climbing Miami Center
12:22 20.9300 -67.9317 133° Southeast 508 585 39,000  Level Miami Center
12:23 20.8319 -67.8206 133° Southeast 508 585 39,000  Level Miami Center
12:24 20.7297 -67.7103 135° Southeast 515 593 39,000  Level Miami Center
12:25 20.6336 -67.5972 132° Southeast 515 593 39,000  Level Miami Center
12:26 20.5333 -67.4667 129° Southeast 520 598 39,000 -180 Level San Juan Center
12:27 20.4500 -67.3500 127° Southeast 520 598 38,700 -660 Descending San Juan Center
12:28 20.3333 -67.2500 141° Southeast 520 598 37,700 -1,380 Descending San Juan Center
12:29 20.2333 -67.1333 132° Southeast 540 621 36,000 -1,920 Descending San Juan Center
12:30 20.1333 -67.0167 132° Southeast 530 610 33,900 -1,920 Descending San Juan Center
12:31 20.0333 -66.9000 132° Southeast 520 598 32,200 -1,920 Descending San Juan Center
12:32 19.9333 -66.7833 132° Southeast 520 598 30,100 -2,100 Descending San Juan Center
12:33 19.8500 -66.6833 132° Southeast 510 587 28,100 -1,980 Descending San Juan Center
12:34 19.7500 -66.5667 132° Southeast 500 575 26,200 -2,040 Descending San Juan Center
12:35 19.6500 -66.4667 137° Southeast 510 587 24,000 -2,160 Descending San Juan Center
12:36 19.5500 -66.3500 132° Southeast 490 564 21,900 -1,980 Descending San Juan Center
12:37 19.4667 -66.2500 131° Southeast 470 541 20,100 -1,800 Descending San Juan Center
12:38 19.3833 -66.1500 131° Southeast 460 529 18,300 -1,380 Descending San Juan Center
12:39 19.3000 -66.0500 131° Southeast 440 506 17,400 -1,020 Descending San Juan Center
12:40 19.2000 -65.9667 142° Southeast 450 518 16,300 -1,080 Descending San Juan Center
12:41 19.1167 -65.8667 131° Southeast 430 495 15,300 -1,020 Descending San Juan Center
12:42 19.0333 -65.7667 131° Southeast 430 495 14,300 -1,020 Descending San Juan Center
12:43 18.9667 -65.6833 130° Southeast 420 483 13,300 -1,020 Descending San Juan Center
12:44 18.8833 -65.5833 131° Southeast 410 472 12,300 -1,020 Descending San Juan Center
12:45 18.8000 -65.5000 137° Southeast 390 449 11,300 -1,680 Descending San Juan Center
12:46 18.7167 -65.4333 143° Southeast 390 449 9,000 -1,200 Descending San Juan Center
12:47 18.6333 -65.3833 150° Southeast 330 380 9,000  Level San Juan Center
12:48 18.5667 -65.3333 145° Southeast 290 334 9,000 -300 Level San Juan Center
12:49 18.5000 -65.2833 145° Southeast 280 322 8,400 -540 Descending San Juan Center
12:51 18.3667 -65.2000 149° Southeast 250 288 7,400 -540 Descending San Juan Center